Regional Weather Roundup
Issued by NWS Albany, NY

Home | Current Version | Previous Version | Text Only | Print | Product List | Glossary On
Versions: 1 2 3 4 5 6 7 8 9 10 11 12 13 14 15 16 17 18 19 20 21 22 23 24 25 26 27 28 29 30 31 32 33 34 35 36 37 38 39 40 41 42 43 44 45 46 47 48
000
ASUS41 KALY 061110
RWRALY

NEW YORK STATE HOURLY WEATHER ROUNDUP
NATIONAL WEATHER SERVICE ALBANY NY
700 AM EDT WED MAY 06 2015

NOTE: "FAIR" INDICATES FEW OR NO CLOUDS BELOW 12,000 FEET WITH NO
SIGNIFICANT WEATHER AND/OR NO OBSTRUCTIONS TO VISIBILITY.

NYZ032-033-038>043-046>054-057>066-NYZ062>081-061200-
EAST


CITY           SKY/WX    TMP DP  RH WIND       PRES   REMARKS
ALBANY         CLOUDY    55  44  66 N3        30.30R
GLENS FALLS    MOSUNNY   48  41  76 CALM      30.30R
POUGHKEEPSIE   LGT RAIN  57  50  77 CALM      30.27R
NEWBURGH       LGT RAIN  61  45  55 NE12      30.29R
MONTGOMERY     LGT RAIN  59  45  59 CALM      30.28R
WHITE PLAINS   CLOUDY    64  35  34 NE8       30.24R
ISLIP          CLOUDY    62  45  53 NE12      30.22R
NEW YORK CITY  LGT RAIN  61  49  64 NE7       30.25R
CENTRAL PARK   CLOUDY    65  43  44 VRB5      30.28R
$$

NYZ005>009-017-018-044>046-055-056-061200-
CENTRAL


CITY           SKY/WX    TMP DP  RH WIND       PRES   REMARKS
FULTON         MOSUNNY   45  41  86 CALM      30.30R
SYRACUSE       PTSUNNY   49  43  80 CALM      30.30R
ROME           MOSUNNY   46  40  79 CALM      30.32R
ELMIRA         CLOUDY    53  52  96 CALM      30.29R
BINGHAMTON     CLOUDY    52  49  89 CALM      30.29R
MONTICELLO     CLOUDY    52  50  93 SW5       30.31R
$$

NYZ026>034-041>043-061200-
NORTH


CITY           SKY/WX    TMP DP  RH WIND       PRES   REMARKS
WATERTOWN      SUNNY     40  38  93 E3        30.30R
FORT DRUM      NOT AVBL
MASSENA        SUNNY     42  40  92 CALM      30.30S
SARANAC LAKE   SUNNY     32  29  88 CALM      30.30R
PLATTSBURGH    SUNNY     43  39  86 CALM      30.29S
$$

NYZ001>004-010>016-019>021-061200-
WEST


CITY           SKY/WX    TMP DP  RH WIND       PRES   REMARKS
NIAGARA FALLS  CLOUDY    54  41  61 E6        30.28R
BUFFALO        CLOUDY    55  48  77 NE8       30.27R
DUNKIRK        CLOUDY    56  55  97 E3        30.25R FOG
JAMESTOWN      CLOUDY    54  52  94 E6        30.26R
WELLSVILLE     CLOUDY    51  47  86 SE9       30.30R
ROCHESTER      CLOUDY    55  38  52 E3        30.31R
PENN YAN       CLOUDY    52  49  89 CALM      30.30R
$$

             KEY
       WCI = WIND CHILL INDEX
       VSB = VISIBILITY
       HX  = HEAT INDEX
$$


USA.gov is the U.S. government's official web portal to all federal, state and local government web resources and services.